{"data":{"norad_id":56950,"epoch":"2026-09-21T21:19:39.633888Z","epoch_age_seconds":79639,"freshness":"FRESH","line1":"1 56950U 23084U   26264.88865317  .00003263  00000+0  16042-3 0  9997","line2":"2 56950  97.6335  40.9322 0002550  75.1821 284.9695 15.18759360181846","mean_motion":15.1875936,"eccentricity":0.000255,"inclination_deg":97.6335,"raan_deg":40.9322,"arg_perigee_deg":75.1821,"mean_anomaly_deg":284.9695,"bstar":0.00016042,"rev_number":18184,"period_min":94.814230478224,"perigee_km":507.83264328781,"apogee_km":511.34538355465,"semimajor_km":6887.7260134212,"source":"CELESTRAK","updated_at":"2026-09-22T09:00:25.993350Z"}}